Flag for U.S.A. Weather past 2 weeks in Independence, Missouri, U.S.A.

Now
62 °F

Fog.


Feels Like: 62 °F
Forecast: 62 / 80 °F
Wind: 6 mph from South

Location: Lee's Summit Municipal Airport

Current Time: Sep 19, 2014 at 7:17:25 AM

Latest Report: Sep 19, 2014 at 6:53 AM


Visibility: 4 mi

Pressure: 30.02 "Hg

Humidity: 93%

Dew point: 60 °F

Location of IndependenceLocation

Historic Weather in Independence — Graph

°F

Independence temperature yesterday

Maximum temperature yesterday: 67 °F (at 5:53 PM)
Minimum temperature yesterday: 60 °F (at 7:53 AM)
Average temperature yesterday: 63 °F

Past Weeks' High & Low Weather Summary

 TemperatureHumidityPressure
High91 °F (Sep 4, 2:53 PM)97% (Sep 16, 6:59 AM)30.43 "Hg (Sep 16, 6:59 AM)
Low39 °F (Sep 13, 4:59 AM)41% (Sep 13, 3:53 PM)29.53 "Hg (Sep 10, 12:53 AM)
Average65 °F77%30.07 "Hg
* Reported Sep 4 5:53 AM — Sep 19 5:53 AM, Independence, Weather by CustomWeather, © 2014

Note: Actual official high and low records may vary slightly from our data, if they occured in-between our weather recording intervals... More about our weather records

Advertising

Independence weather history for previous 24 hours

 ConditionsComfort  
Time TempWeatherWind HumidityBarometerVisibility
5:53 AM
Sep 19
62 °FFog.6 mph93%30.01 "Hg5 mi
4:53 AM62 °FFog.7 mph93%30.01 "Hg5 mi
3:53 AM62 °FFog.7 mph96%30.01 "Hg6 mi
2:53 AM62 °FLow clouds.6 mph93%30.01 "Hg8 mi
1:53 AM62 °FLow clouds.6 mph96%30.02 "Hg7 mi
12:53 AM61 °FFog.No wind97%30.02 "Hg6 mi
11:53 PM
Sep 18
63 °FClear.5 mph93%30.02 "Hg9 mi
10:53 PM62 °FClear.6 mph96%30.02 "Hg7 mi
9:53 PM62 °FFog.7 mph93%30.02 "Hg5 mi
8:53 PM63 °FClear.5 mph93%30.01 "Hg7 mi
7:53 PM65 °FPassing clouds.3 mph87%30.00 "Hg10 mi
6:53 PM66 °FOvercast.5 mph87%30.00 "Hg10 mi
5:53 PM67 °FMostly cloudy.7 mph85%29.99 "Hg9 mi
4:53 PM66 °FOvercast.6 mph87%30.00 "Hg8 mi
3:53 PM66 °FLow clouds.7 mph87%29.99 "Hg8 mi
2:53 PM66 °FLow clouds.7 mph87%30.00 "Hg9 mi
1:53 PM65 °FLow clouds.12 mph87%30.00 "Hg10 mi
12:53 PM65 °FLow clouds.10 mph87%30.01 "Hg10 mi
11:53 AM64 °FLow clouds.10 mph90%30.03 "Hg10 mi
10:53 AM63 °FLow clouds.8 mph90%30.03 "Hg10 mi
9:53 AM62 °FFog.9 mph93%30.02 "Hg6 mi
8:53 AM61 °FFog.8 mph97%30.01 "Hg1 mi
8:04 AM60 °FFog.13 mph96%30.02 "Hg1 mi
7:53 AM60 °FFog.8 mph96%30.00 "Hg1 mi
Weather by CustomWeather, © 2014

See weather overviewHow to use our weather pages